SILO ALERT LOG


Silo ID Alert Type Alert Message Silo Type Points Depth (mm) Strength Temperature (°C) Humidity (%) Height (mm) Volume (㎥) Weight (t) Flag Time
WJWJR01 Humidity 습도센서 측정값이 80% 초과 62 3490 3355 22.4 82.7 4149 469.354 296.726 0 2026-06-22 05:26:16.000
WJWJR01 Humidity 습도센서 측정값이 80% 초과 62 3480 3343 22.6 82.5 4160 470.485 297.441 0 2026-06-22 04:26:19.000
WJWJR01 Humidity 습도센서 측정값이 80% 초과 59 3500 3336 22.7 82.4 4140 468.223 296.011 0 2026-06-22 03:26:17.000
WJWJR01 Humidity 습도센서 측정값이 80% 초과 61 3510 3333 23 82 4130 467.092 295.296 0 2026-06-22 02:26:18.000
WJWJR01 Humidity 습도센서 측정값이 80% 초과 71 3380 3366 23.3 81.6 4260 481.795 304.591 0 2026-06-22 01:26:30.000
WJWJR01 Humidity 습도센서 측정값이 80% 초과 61 3500 3337 23.6 81.2 4140 468.223 296.011 0 2026-06-22 00:26:17.000
WJWJR01 Humidity 습도센서 측정값이 80% 초과 69 3490 3319 23.9 80.5 4149 469.354 296.726 0 2026-06-21 23:26:22.000
WJWJR01 Humidity 습도센서 측정값이 80% 초과 61 3510 3341 23.5 80.8 4130 467.092 295.296 0 2026-06-21 09:26:17.000
WJWJR01 Humidity 습도센서 측정값이 80% 초과 71 3380 3355 22.7 82.4 4260 481.795 304.591 0 2026-06-21 08:26:32.000
WJWJR01 Humidity 습도센서 측정값이 80% 초과 62 3500 3339 22.2 83.1 4140 468.223 296.011 0 2026-06-21 07:26:17.000
WJWJR01 Humidity 습도센서 측정값이 80% 초과 71 3380 3356 22.1 83.1 4260 481.795 304.591 0 2026-06-21 06:26:31.000
WJWJR01 Humidity 습도센서 측정값이 80% 초과 64 3480 3335 22.1 83 4160 470.485 297.441 0 2026-06-21 05:26:27.000
WJWJR01 Humidity 습도센서 측정값이 80% 초과 71 3370 3360 22.3 82.7 4270 482.926 305.306 0 2026-06-21 04:26:36.000
WJWJR01 Humidity 습도센서 측정값이 80% 초과 61 3500 3340 22.3 82.8 4140 468.223 296.011 0 2026-06-21 03:26:21.000
WJWJR01 Humidity 습도센서 측정값이 80% 초과 71 3380 3335 22.5 82.6 4260 481.795 304.591 0 2026-06-21 02:26:33.000
WJWJR01 Humidity 습도센서 측정값이 80% 초과 74 3340 3350 22.6 82.4 4300 486.319 307.451 0 2026-06-21 01:26:37.000
WJWJR01 Humidity 습도센서 측정값이 80% 초과 61 3510 3349 22.9 82.2 4130 467.092 295.296 0 2026-06-21 00:26:14.000
WJWJR01 Humidity 습도센서 측정값이 80% 초과 70 3490 3329 23 82 4149 469.354 296.726 0 2026-06-20 23:26:19.000
WJWJR01 Humidity 습도센서 측정값이 80% 초과 71 3390 3357 23.2 81.7 4250 480.664 303.876 0 2026-06-20 22:26:33.000
WJWJR01 Humidity 습도센서 측정값이 80% 초과 64 3470 3342 23.5 81.3 4170 471.616 298.156 0 2026-06-20 21:26:24.000

[첫 페이지] [42] [43] [44] [45] 46 [47] [48] [49] [50] [마지막 페이지]